| time (UTC) | temp C | wind direction | speed KPH | gust KPH | rain 1hr cm | rain 24hr cm | rain mn cm | humidity % | barometer mb |
| 20260504013743 | 11 | 237 | 4.8 | 6.4 | 0.00 | 0.00 | 0.00 | 54 | 1015.6 |
| 20260504013649 | 11 | 237 | 4.8 | 6.4 | 0.00 | 0.00 | 0.00 | 54 | 1015.6 |
| 20260504012647 | 11 | 238 | 3.2 | 6.4 | 0.00 | 0.00 | 0.00 | 54 | 1015.5 |
| 20260504011721 | 11 | 238 | 3.2 | 6.4 | 0.00 | 0.00 | 0.00 | 54 | 1015.5 |
| 20260504011649 | 11 | 238 | 3.2 | 6.4 | 0.00 | 0.00 | 0.00 | 54 | 1015.5 |
| 20260504010649 | 11 | 239 | 4.8 | 9.7 | 0.00 | 0.00 | 0.00 | 53 | 1015.4 |
| 20260504005647 | 12 | 239 | 3.2 | 4.8 | 0.00 | 0.00 | 0.00 | 52 | 1015.4 |
| 20260504004651 | 12 | 239 | 3.2 | 4.8 | 0.00 | 0.00 | 0.00 | 52 | 1015.4 |
| 20260504003654 | 12 | 242 | 3.2 | 6.4 | 0.00 | 0.00 | 0.00 | 51 | 1015.4 |
| 20260504002649 | 12 | 246 | 3.2 | 6.4 | 0.00 | 0.00 | 0.00 | 49 | 1015.4 |
| 20260504001735 | 12 | 246 | 3.2 | 6.4 | 0.00 | 0.00 | 0.00 | 49 | 1015.4 |
| 20260504001648 | 12 | 246 | 3.2 | 6.4 | 0.00 | 0.00 | 0.00 | 49 | 1015.4 |
| 20260504000649 | 13 | 241 | 3.2 | 11.3 | 0.00 | 0.00 | 0.00 | 49 | 1015.3 |
| 20260504000259 | 13 | 248 | 1.6 | 8.0 | 0.00 | 0.00 | 0.00 | 47 | 1015.5 |
| 20260503235651 | 13 | 248 | 1.6 | 8.0 | 0.00 | 0.00 | 0.00 | 47 | 1015.5 |
| 20260503234742 | 13 | 248 | 1.6 | 8.0 | 0.00 | 0.00 | 0.00 | 47 | 1015.5 |
| 20260503234648 | 13 | 248 | 1.6 | 8.0 | 0.00 | 0.00 | 0.00 | 47 | 1015.5 |
| 20260503233648 | 13 | 253 | 1.6 | 8.0 | 0.00 | 0.00 | 0.00 | 48 | 1015.4 |
| 20260503232649 | 13 | 258 | 4.8 | 11.3 | 0.00 | 0.00 | 0.00 | 45 | 1015.4 |
| 20260503231648 | 13 | 258 | 4.8 | 11.3 | 0.00 | 0.00 | 0.00 | 45 | 1015.4 |
| 20260503230648 | 14 | 267 | 3.2 | 9.7 | 0.00 | 0.00 | 0.00 | 45 | 1015.4 |
| 20260503225647 | 14 | 264 | 4.8 | 16.1 | 0.00 | 0.00 | 0.00 | 44 | 1015.6 |
| 20260503224736 | 14 | 264 | 4.8 | 16.1 | 0.00 | 0.00 | 0.00 | 44 | 1015.6 |
| 20260503224648 | 14 | 264 | 4.8 | 16.1 | 0.00 | 0.00 | 0.00 | 44 | 1015.6 |
| 20260503223654 | 14 | 256 | 4.8 | 14.5 | 0.00 | 0.00 | 0.00 | 44 | 1015.6 |
| 20260503222649 | 14 | 268 | 4.8 | 12.9 | 0.00 | 0.00 | 0.00 | 44 | 1015.7 |
| 20260503221649 | 14 | 268 | 4.8 | 12.9 | 0.00 | 0.00 | 0.00 | 44 | 1015.7 |
| 20260503220649 | 14 | 262 | 4.8 | 14.5 | 0.00 | 0.00 | 0.00 | 45 | 1015.7 |
| 20260503215723 | 14 | 259 | 4.8 | 14.5 | 0.00 | 0.00 | 0.00 | 43 | 1015.6 |
| 20260503215648 | 14 | 259 | 4.8 | 14.5 | 0.00 | 0.00 | 0.00 | 43 | 1015.6 |
| 20260503214654 | 14 | 259 | 4.8 | 14.5 | 0.00 | 0.00 | 0.00 | 43 | 1015.6 |
| 20260503213649 | 15 | 265 | 4.8 | 14.5 | 0.00 | 0.00 | 0.00 | 43 | 1015.5 |
| 20260503212649 | 16 | 271 | 3.2 | 11.3 | 0.00 | 0.00 | 0.00 | 40 | 1015.5 |
| 20260503211726 | 16 | 271 | 3.2 | 11.3 | 0.00 | 0.00 | 0.00 | 40 | 1015.5 |
| 20260503211647 | 16 | 271 | 3.2 | 11.3 | 0.00 | 0.00 | 0.00 | 40 | 1015.5 |
| 20260503210650 | 15 | 275 | 4.8 | 12.9 | 0.00 | 0.00 | 0.00 | 40 | 1015.6 |
| 20260503205648 | 15 | 257 | 6.4 | 16.1 | 0.00 | 0.00 | 0.00 | 40 | 1015.5 |
| 20260503204647 | 15 | 257 | 6.4 | 16.1 | 0.00 | 0.00 | 0.00 | 40 | 1015.5 |
| 20260503203648 | 15 | 253 | 6.4 | 14.5 | 0.00 | 0.00 | 0.00 | 41 | 1015.7 |
| 20260503202743 | 15 | 268 | 6.4 | 16.1 | 0.00 | 0.00 | 0.00 | 38 | 1015.9 |
| 20260503202648 | 15 | 268 | 6.4 | 16.1 | 0.00 | 0.00 | 0.00 | 38 | 1015.9 |
| 20260503201648 | 15 | 268 | 6.4 | 16.1 | 0.00 | 0.00 | 0.00 | 38 | 1015.9 |
| 20260503200729 | 15 | 261 | 4.8 | 14.5 | 0.00 | 0.00 | 0.00 | 41 | 1016.0 |
| 20260503200650 | 15 | 261 | 4.8 | 14.5 | 0.00 | 0.00 | 0.00 | 41 | 1016.0 |
| 20260503195719 | 15 | 265 | 4.8 | 12.9 | 0.00 | 0.00 | 0.00 | 42 | 1016.3 |
| 20260503195648 | 15 | 265 | 4.8 | 12.9 | 0.00 | 0.00 | 0.00 | 42 | 1016.3 |
| 20260503194647 | 15 | 265 | 4.8 | 12.9 | 0.00 | 0.00 | 0.00 | 42 | 1016.3 |
| 20260503193651 | 15 | 263 | 6.4 | 19.3 | 0.00 | 0.00 | 0.00 | 41 | 1016.7 |
| 20260503192807 | 15 | 251 | 6.4 | 17.7 | 0.00 | 0.00 | 0.00 | 41 | 1016.7 |
| 20260503192647 | 15 | 251 | 6.4 | 17.7 | 0.00 | 0.00 | 0.00 | 41 | 1016.7 |
| 20260503191647 | 15 | 251 | 6.4 | 17.7 | 0.00 | 0.00 | 0.00 | 41 | 1016.7 |
| 20260503190650 | 15 | 269 | 4.8 | 14.5 | 0.00 | 0.00 | 0.00 | 40 | 1017.0 |
| 20260503185647 | 14 | 249 | 6.4 | 16.1 | 0.00 | 0.00 | 0.00 | 45 | 1017.2 |
| 20260503184649 | 14 | 249 | 6.4 | 16.1 | 0.00 | 0.00 | 0.00 | 45 | 1017.2 |
| 20260503183651 | 15 | 247 | 8.0 | 19.3 | 0.00 | 0.00 | 0.00 | 43 | 1017.4 |
| 20260503182754 | 15 | 269 | 4.8 | 11.3 | 0.00 | 0.00 | 0.00 | 43 | 1017.5 |
| 20260503182650 | 15 | 269 | 4.8 | 11.3 | 0.00 | 0.00 | 0.00 | 43 | 1017.5 |
| 20260503181648 | 15 | 269 | 4.8 | 11.3 | 0.00 | 0.00 | 0.00 | 43 | 1017.5 |
| 20260503180648 | 15 | 276 | 4.8 | 12.9 | 0.00 | 0.00 | 0.00 | 46 | 1017.7 |
| 20260503175722 | 15 | 273 | 4.8 | 14.5 | 0.00 | 0.00 | 0.00 | 43 | 1017.9 |
| 20260503175647 | 15 | 273 | 4.8 | 14.5 | 0.00 | 0.00 | 0.00 | 43 | 1017.9 |
| 20260503174648 | 15 | 273 | 4.8 | 14.5 | 0.00 | 0.00 | 0.00 | 43 | 1017.9 |
| 20260503173649 | 14 | 288 | 4.8 | 11.3 | 0.00 | 0.00 | 0.00 | 44 | 1017.9 |
| 20260503172647 | 14 | 283 | 4.8 | 9.7 | 0.00 | 0.00 | 0.00 | 43 | 1018.2 |
| 20260503171655 | 14 | 283 | 4.8 | 9.7 | 0.00 | 0.00 | 0.00 | 43 | 1018.2 |
| 20260503170722 | 13 | 275 | 4.8 | 17.7 | 0.00 | 0.00 | 0.00 | 43 | 1018.2 |
| 20260503170648 | 13 | 275 | 4.8 | 17.7 | 0.00 | 0.00 | 0.00 | 43 | 1018.2 |
| 20260503150650 | 11 | 246 | 4.8 | 17.7 | 0.00 | 0.00 | 0.00 | 44 | 1019.1 |
| 20260503130652 | 6 | 245 | 3.2 | 6.4 | 0.00 | 0.05 | 0.00 | 69 | 1019.6 |
| 20260503110649 | 1 | 247 | 4.8 | 6.4 | 0.00 | 0.18 | 0.00 | 85 | 1018.7 |
| 20260503080649 | 1 | 249 | 3.2 | 4.8 | 0.00 | 0.20 | 0.00 | 86 | 1018.5 |
| 20260503072801 | 1 | 249 | 3.2 | 4.8 | 0.00 | 0.20 | 0.00 | 87 | 1018.6 |
| 20260503072655 | 1 | 249 | 3.2 | 4.8 | 0.00 | 0.20 | 0.00 | 87 | 1018.6 |
| 20260503071648 | 1 | 249 | 3.2 | 4.8 | 0.00 | 0.20 | 0.00 | 87 | 1018.6 |
| 20260503070649 | 2 | 249 | 3.2 | 4.8 | 0.00 | 0.20 | 0.00 | 86 | 1018.4 |
| 20260503054656 | 2 | 256 | 1.6 | 3.2 | 0.00 | 0.20 | 0.00 | 81 | 1018.6 |
| 20260503053652 | 2 | 258 | 0.0 | 3.2 | 0.00 | 0.20 | 0.00 | 81 | 1018.7 |
| 20260503052648 | 3 | 261 | 1.6 | 3.2 | 0.00 | 0.20 | 0.00 | 80 | 1018.8 |
| 20260503051651 | 3 | 261 | 1.6 | 3.2 | 0.00 | 0.20 | 0.00 | 80 | 1018.8 |
| 20260503050653 | 3 | 277 | 1.6 | 3.2 | 0.00 | 0.20 | 0.00 | 79 | 1019.0 |
| 20260503045735 | 3 | 310 | 1.6 | 3.2 | 0.00 | 0.20 | 0.00 | 78 | 1018.9 |
| 20260503045649 | 3 | 310 | 1.6 | 3.2 | 0.00 | 0.20 | 0.00 | 78 | 1018.9 |
| 20260503044649 | 3 | 310 | 1.6 | 3.2 | 0.00 | 0.20 | 0.00 | 78 | 1018.9 |
| 20260503043651 | 3 | 0 | 0.0 | 0.0 | 0.00 | 0.20 | 0.00 | 78 | 1018.9 |
| 20260503042816 | 3 | 0 | 0.0 | 0.0 | 0.00 | 0.20 | 0.00 | 78 | 1019.0 |
| 20260503042649 | 3 | 0 | 0.0 | 0.0 | 0.00 | 0.20 | 0.00 | 78 | 1019.0 |
| 20260503041648 | 3 | 0 | 0.0 | 0.0 | 0.00 | 0.20 | 0.00 | 78 | 1019.0 |
| 20260503040649 | 3 | 0 | 0.0 | 0.0 | 0.00 | 0.20 | 0.00 | 78 | 1019.2 |
| 20260503035749 | 3 | 0 | 0.0 | 0.0 | 0.00 | 0.20 | 0.20 | 80 | 1019.3 |
| 20260503035654 | 3 | 0 | 0.0 | 0.0 | 0.00 | 0.20 | 0.20 | 80 | 1019.3 |
| 20260503034649 | 3 | 0 | 0.0 | 0.0 | 0.00 | 0.20 | 0.20 | 80 | 1019.3 |
| 20260503033810 | 3 | 0 | 0.0 | 0.0 | 0.00 | 0.20 | 0.20 | 77 | 1019.3 |
| 20260503033651 | 3 | 0 | 0.0 | 0.0 | 0.00 | 0.20 | 0.20 | 77 | 1019.3 |
| 20260503032651 | 3 | 0 | 0.0 | 0.0 | 0.00 | 0.20 | 0.20 | 78 | 1019.2 |
| 20260503031652 | 3 | 0 | 0.0 | 0.0 | 0.00 | 0.20 | 0.20 | 78 | 1019.2 |
| 20260503030649 | 3 | 0 | 0.0 | 0.0 | 0.00 | 0.20 | 0.20 | 77 | 1019.4 |
| 20260503025649 | 3 | 0 | 0.0 | 0.0 | 0.00 | 0.20 | 0.20 | 77 | 1019.5 |
| 20260503024803 | 3 | 0 | 0.0 | 0.0 | 0.00 | 0.20 | 0.20 | 77 | 1019.5 |
| 20260503024648 | 3 | 0 | 0.0 | 0.0 | 0.00 | 0.20 | 0.20 | 77 | 1019.5 |
| 20260503023751 | 3 | 0 | 0.0 | 0.0 | 0.00 | 0.20 | 0.20 | 74 | 1019.6 |
| 20260503023649 | 3 | 0 | 0.0 | 0.0 | 0.00 | 0.20 | 0.20 | 74 | 1019.6 |
| 20260503022738 | 3 | 0 | 0.0 | 0.0 | 0.00 | 0.20 | 0.20 | 74 | 1019.4 |
| 20260503022649 | 3 | 0 | 0.0 | 0.0 | 0.00 | 0.20 | 0.20 | 74 | 1019.4 |
| 20260503021648 | 3 | 0 | 0.0 | 0.0 | 0.00 | 0.20 | 0.20 | 74 | 1019.4 |
| 20260503021009 | 3 | 0 | 0.0 | 0.0 | 0.00 | 0.20 | 0.20 | 72 | 1019.5 |
| 20260503020650 | 3 | 0 | 0.0 | 0.0 | 0.00 | 0.20 | 0.20 | 72 | 1019.5 |
| 20260503015722 | 3 | 0 | 0.0 | 0.0 | 0.00 | 0.20 | 0.20 | 71 | 1019.5 |
| 20260503015649 | 3 | 0 | 0.0 | 0.0 | 0.00 | 0.20 | 0.20 | 71 | 1019.5 |
| 20260503014649 | 3 | 0 | 0.0 | 0.0 | 0.00 | 0.20 | 0.20 | 71 | 1019.5 |